This is the latest recevied weather packets stored in our database for station/object VK4UCZ-13. If no packets are shown the sender has not sent any weather packets the latest 10 day(s).
| Time | Temp. | Humidity | Pressure | Rain* | Wind** | Luminosity | Snow |
|---|---|---|---|---|---|---|---|
| 1788225815 | 19.44° C | 74% | 1018.8 hPa | 0 mm | - | - | - |
| 1788225215 | 20.56° C | 72% | 1018.8 hPa | 0 mm | - | - | - |
| 1788224615 | 20° C | 75% | 1019 hPa | 0 mm | - | - | - |
| 1788224015 | 20° C | 76% | 1019.1 hPa | 0 mm | - | - | - |
| 1788223415 | 19.44° C | 79% | 1019.5 hPa | 0 mm | - | - | - |
| 1788222815 | 18.33° C | 81% | 1019.6 hPa | 0 mm | - | - | - |
| 1788222215 | 18.89° C | 80% | 1020 hPa | 0 mm | - | - | - |
| 1788221615 | 18.89° C | 79% | 1020 hPa | 0 mm | - | - | - |
| 1788221015 | 17.78° C | 81% | 1020 hPa | 0 mm | - | - | - |
| 1788220415 | 17.78° C | 82% | 1020.4 hPa | 0 mm | - | - | - |
| 1788219815 | 17.78° C | 81% | 1020.4 hPa | 0 mm | - | - | - |
| 1788219215 | 17.78° C | 82% | 1020.4 hPa | 0 mm | - | - | - |
| 1788218615 | 17.78° C | 81% | 1020.5 hPa | 0 mm | - | - | - |
| 1788218015 | 17.78° C | 81% | 1020.4 hPa | 0 mm | - | - | - |
| 1788217415 | 17.78° C | 81% | 1020.5 hPa | 0 mm | - | - | - |
| 1788216815 | 17.22° C | 82% | 1020.1 hPa | 0 mm | - | - | - |
| 1788216215 | 17.22° C | 81% | 1020.4 hPa | 0 mm | - | - | - |
| 1788215615 | 16.11° C | 84% | 1020 hPa | 0 mm | - | - | - |
| 1788215015 | 16.11° C | 84% | 1020.1 hPa | 0 mm | - | - | - |
| 1788214415 | 16.11° C | 84% | 1020.4 hPa | 0 mm | - | - | - |
| 1788213815 | 15.56° C | 85% | 1020.1 hPa | 0 mm | - | - | - |
| 1788213221 | 15.56° C | 85% | 1020.4 hPa | 0 mm | - | - | - |
| 1788212615 | 15.56° C | 86% | 1020.2 hPa | 0 mm | - | - | - |
| 1788212015 | 15° C | 86% | 1020 hPa | 0 mm | - | - | - |
| 1788211415 | 15° C | 87% | 1020 hPa | 0 mm | - | - | - |
* Rain latest hour (hover to see other rain measurements)
** Current wind speed in m/s (hover to see current wind gust speed)